Location: Nairn
(57.5833°N, 3.8667°W)
Time: 00:45:25
(UTC+00:00)

Vanguard 1 Rocket - Pass Details

Date: 30 November 2020
Orbit: 655 x 4221 km, 34.3° (Epoch: 20 January)

Event Time Altitude Azimuth Distance (km) Brightness Sun altitude
Exits shadow 02:07:18 31° 156° (SSE) 5,083 10.9 -47.7°
Drops below altitude 10° 02:19:42 10° 113° (ESE) 5,595 11.6 -46.5°
Sets 02:23:51 0° 104° (ESE) 6,152 12.0 -46.1°
